Voltar ao catálogo

STARLINK-6355

AtivoComunicaçõesVLEO
NORAD 57356·PAYLOAD·🇺🇸 United States

Lançado Jul 16, 2023 de Cape Canaveral Space Force Station

Loading…

Próximas Passagens (próximas 24 horas)

TLE

AtualizadoSource: CelesTrak SupGP

Época: Sep 15, 2026, 02:35 UTC

1 57356C 23099AE  26258.10812500 -.00025550  00000+0 -92520-3 0  2586
2 57356  43.0012 252.1810 0000770 275.0559 156.7981 15.27599173    11

Acompanhe STARLINK-6355 em tempo real com AllMySat

Download on the App Store